Hourly Data Report for September 20, 2016

All times are specified in Local Standard Time (LST). Add 1 hour to adjust for Daylight Saving Time where and when it is observed.

CORAL HARBOUR A
NUNAVUT

64°11'36.000" N
83°21'34.000" W
62.20 m
2301002
71915
YZS

Download Data

Hourly Data (September 2016)
Hourly Data Report for September 20, 2016
Temp Definition
°C
Dew Point Temp Definition
°C
Rel Hum Definition
%
Wind Dir Definition
10's deg

Wind Spd Definition
km/h
Visibility Definition
km
Stn Press Definition
kPa
Hmdx Definition


Wind Chill Definition


Weather Definition


TIME
00:00 Legend Double Dagger 5.8 4.9 94 15 26 3.2 99.37     Fog
01:00 Legend Double Dagger 5.9 4.6 91 13 23 3.2 99.37     Fog
02:00 Legend Double Dagger 5.8 4.8 93 10 21 19.3 99.35     LegendNANA
03:00 Legend Double Dagger 5.3 4.1 92 10 22 24.1 99.32     LegendNANA
04:00 Legend Double Dagger 4.7 3.4 91 11 16 24.1 99.27     Mostly Cloudy
05:00 Legend Double Dagger 3.7 2.8 94 8 21 24.1 99.22     LegendNANA
06:00 Legend Double Dagger 3.7 2.7 93 9 23 24.1 99.21     LegendNANA
07:00 Legend Double Dagger 4.6 2.5 86 10 27 24.1 99.20     Mostly Cloudy
08:00 Legend Double Dagger 4.7 2.6 86 8 22 24.1 99.15     LegendNANA
09:00 Legend Double Dagger 5.7 2.7 81 8 21 24.1 99.10     LegendNANA
10:00 Legend Double Dagger 7.0 3.3 77 11 25 24.1 99.01     Mainly Clear
11:00 Legend Double Dagger 8.1 3.8 74 11 29 24.1 98.96     LegendNANA
12:00 Legend Double Dagger 7.9 4.1 77 10 25 24.1 98.91     LegendNANA
13:00 Legend Double Dagger 7.7 4.1 78 10 22 24.1 98.84     Mostly Cloudy
14:00 Legend Double Dagger 8.6 4.3 74 8 19 24.1 98.82     LegendNANA
15:00 Legend Double Dagger 8.1 4.2 76 9 20 24.1 98.82     LegendNANA
16:00 Legend Double Dagger 7.9 4.5 79 6 18 24.1 98.82     Mostly Cloudy
17:00 Legend Double Dagger 7.5 4.6 82 5 20 24.1 98.82     LegendNANA
18:00 Legend Double Dagger 7.5 4.1 79 5 25 24.1 98.79     LegendNANA
19:00 Legend Double Dagger 7.2 3.3 76 4 27 24.1 98.79     Cloudy
20:00 Legend Double Dagger 6.2 2.7 78 4 23 24.1 98.78     Rain
21:00 Legend Double Dagger 4.7 3.7 93 3 30 6.4 98.75     Rain
22:00 Legend Double Dagger 4.3 3.0 91 3 40 9.7 98.70     Rain
23:00 Legend Double Dagger 4.0 2.2 88 2 45 9.7 98.68     Rain

Notes on Data Quality.

Legend

  • E = Estimated
  • M = Missing
  • NA = Not Available
  • ‡ = Partner data that is not subject to review by the National Climate Archives
Date modified: